Jaffrey, NH

7:33 AM EDT on May 24, 2017 (GMT -0400)
Jaffrey Airport-Silver Ranch

Weather History for KAFN - February, 2013

Change the Weather History Date:

Friday, February 8, 2013

  Actual Average Record
Temperature  
Mean Temperature 16 °F -  
Max Temperature 19 °F 31 °F 46 °F (2005)
Min Temperature 12 °F 11 °F -4 °F (2000)
Degree Days  
Heating Degree Days 48    
Moisture  
Dew Point 12 °F    
Average Humidity 82    
Maximum Humidity 93    
Minimum Humidity 33    
Precipitation  
Precipitation 0.90 in - - ()
Sea Level Pressure  
Sea Level Pressure 30.11 in    
Wind  
Wind Speed 4 mph (NNE)    
Max Wind Speed 14 mph    
Max Gust Speed 29 mph    
Visibility 3 miles    
Events Fog , Snow    
Averages and records for this station are not official NWS values.
T = Trace of Precipitation, MM = Missing Value Source: NWS Daily Summary

Daily Weather History Graph

Daily Weather History Graph

Search for Another Location

Airport or City:

Trip Planner

Search our weather history database for the weather conditions in past years. The results will help you decide how hot, cold, wet, or windy it might be!

Date:

Astronomy

Feb. 08, 2013 Rise Set
Actual Time 6:54 AM EST 5:10 PM EST
Civil Twilight 6:24 AM EST 5:40 PM EST
Nautical Twilight 5:51 AM EST 6:13 PM EST
Astronomical Twilight 5:18 AM EST 6:46 PM EST
Moon 5:21 AM EST (2/8) 3:40 PM EST (2/8)
Length of Visible Light 11h 15m
Length of Day
10h 16m
Waning Crescent, 3% of the Moon is Illuminated
Feb 8
Waning Crescent
Feb 10
New
Feb 17
First Quarter
Feb 25
Full
Mar 4
Last Quarter

Hourly Weather History & Observations

Time (EST) Temp. Windchill Dew Point Humidity Pressure Visibility Wind Dir Wind Speed Gust Speed Precip Events Conditions
12:52 AM 19.9 °F 14.9 °F -5.1 °F 33% 30.46 in 10.0 mi Variable 3.5 mph - N/A   Overcast
1:52 AM 19.0 °F - -4.0 °F 36% 30.44 in 10.0 mi Calm Calm - N/A   Overcast
2:52 AM 19.9 °F - -0.0 °F 42% 30.41 in 10.0 mi Calm Calm - N/A   Overcast
3:05 AM 19.4 °F - 1.4 °F 46% 30.34 in 10.0 mi Calm Calm - N/A   Overcast
3:52 AM 19.9 °F - 3.9 °F 50% 30.38 in 10.0 mi Calm Calm - N/A   Overcast
4:52 AM 19.9 °F 12.1 °F 12.9 °F 74% 30.37 in 10.0 mi Variable 5.8 mph - N/A   Overcast
5:52 AM 19.9 °F - 15.1 °F 81% 30.35 in 6.0 mi Calm Calm - 0.00 in Snow Light Snow
6:52 AM 19.9 °F 13.4 °F 16.0 °F 85% 30.35 in 7.0 mi East 4.6 mph - 0.00 in   Overcast
7:52 AM 19.9 °F 14.9 °F 17.1 °F 89% 30.33 in 4.0 mi Variable 3.5 mph - 0.00 in Snow Light Snow
8:16 AM 19.4 °F 14.3 °F 15.8 °F 86% 30.26 in 2.5 mi Variable 3.5 mph - 0.00 in Snow Light Snow
8:52 AM 19.0 °F - 16.0 °F 88% 30.31 in 2.5 mi Calm Calm - 0.00 in Snow Light Snow
9:03 AM 19.4 °F 14.3 °F 15.8 °F 86% 30.23 in 3.0 mi Variable 3.5 mph - 0.00 in Snow Light Snow
9:52 AM 19.9 °F 14.9 °F 16.0 °F 85% 30.29 in 6.0 mi Variable 3.5 mph - 0.00 in   Overcast
10:06 AM 19.4 °F 10.4 °F 15.8 °F 86% 30.22 in 6.0 mi North 6.9 mph - N/A   Overcast
10:52 AM 19.9 °F 14.9 °F 16.0 °F 85% 30.27 in 5.0 mi North 3.5 mph - 0.00 in Snow Light Snow
11:02 AM 19.4 °F 12.8 °F 15.8 °F 86% 30.19 in 1.8 mi Variable 4.6 mph - 0.01 in Snow Light Snow
11:15 AM 19.4 °F 11.5 °F 15.8 °F 86% 30.18 in 1.0 mi Variable 5.8 mph - 0.01 in Snow Light Snow
11:24 AM 17.6 °F 10.7 °F 15.8 °F 93% 30.17 in 1.0 mi Variable 4.6 mph - 0.01 in Snow Light Snow
11:34 AM 17.6 °F 9.3 °F 15.8 °F 93% 30.16 in 1.2 mi North 5.8 mph - 0.01 in Snow Light Snow
11:47 AM 17.6 °F 12.3 °F 15.8 °F 93% 30.15 in 1.8 mi Variable 3.5 mph - 0.01 in Snow Light Snow
11:52 AM 18.0 °F 9.8 °F 15.1 °F 88% 30.22 in 2.0 mi Variable 5.8 mph - 0.01 in Snow Light Snow
12:05 PM 17.6 °F 10.7 °F 15.8 °F 93% 30.13 in 4.0 mi Variable 4.6 mph - 0.00 in Snow Light Snow
12:52 PM 18.0 °F 9.8 °F 14.0 °F 84% 30.17 in 6.0 mi Variable 5.8 mph - 0.00 in Snow Light Snow
1:35 PM 17.6 °F 6.4 °F 12.2 °F 79% 30.08 in 1.8 mi NNE 9.2 mph - 0.00 in Snow Light Snow
1:40 PM 17.6 °F 7.3 °F 14.0 °F 86% 30.07 in 1.0 mi NNE 8.1 mph - 0.00 in Snow Light Snow
1:52 PM 17.1 °F 8.7 °F 14.0 °F 88% 30.13 in 0.5 mi NNE 5.8 mph - 0.01 in Fog , Snow Light Snow
2:52 PM 16.0 °F 7.4 °F 12.9 °F 88% 30.09 in 0.5 mi Variable 5.8 mph - 0.03 in Fog , Snow Snow
3:42 PM 15.8 °F 8.6 °F 12.2 °F 86% 29.99 in 0.5 mi Variable 4.6 mph - 0.02 in Fog , Snow Snow
3:52 PM 16.0 °F 7.4 °F 12.9 °F 88% 30.05 in 0.5 mi Variable 5.8 mph - 0.03 in Fog , Snow Snow
4:24 PM 15.8 °F 5.1 °F 12.2 °F 86% 29.95 in 0.2 mi NNE 8.1 mph 17.3 mph 0.03 in Fog , Snow Snow
4:43 PM 15.8 °F 6.1 °F 12.2 °F 86% 29.94 in 0.8 mi Variable 6.9 mph - 0.04 in Snow Light Snow
4:52 PM 16.0 °F 7.4 °F 12.9 °F 88% 30.01 in 0.8 mi Variable 5.8 mph - 0.05 in Snow Light Snow
5:52 PM 15.1 °F 3.3 °F 12.0 °F 88% 29.98 in 0.5 mi NNE 9.2 mph 20.7 mph 0.06 in Fog , Snow Snow
6:29 PM 15.8 °F 4.2 °F 12.2 °F 86% 29.89 in 0.2 mi NNE 9.2 mph 18.4 mph 0.06 in Fog , Snow Heavy Snow
6:40 PM 15.8 °F 4.2 °F 12.2 °F 86% 29.89 in 0.2 mi NNE 9.2 mph - 0.08 in Fog , Snow Heavy Snow
6:52 PM 15.1 °F 5.2 °F 12.0 °F 88% 29.95 in 0.2 mi Variable 6.9 mph 16.1 mph 0.11 in Fog , Snow Heavy Snow
7:41 PM 15.8 °F 6.1 °F 12.2 °F 86% 29.83 in 0.5 mi NNE 6.9 mph 23.0 mph 0.11 in Fog , Snow Snow
7:52 PM 15.1 °F 5.2 °F 12.0 °F 88% 29.90 in 0.5 mi Variable 6.9 mph - 0.12 in Fog , Snow Snow
8:05 PM 15.8 °F 3.4 °F 10.4 °F 79% 29.82 in 0.5 mi NNE 10.4 mph 21.9 mph 0.02 in Fog , Snow Snow
8:52 PM 14.0 °F -0.8 °F 10.9 °F 88% 29.87 in 0.2 mi NNE 13.8 mph 28.8 mph 0.08 in Fog , Snow Snow
9:18 PM 14.0 °F 2.9 °F 10.4 °F 86% 29.78 in 0.2 mi NNE 8.1 mph 23.0 mph 0.04 in Fog , Snow Heavy Snow
9:52 PM 14.0 °F 0.5 °F 10.9 °F 88% 29.82 in 0.2 mi NNE 11.5 mph 23.0 mph 0.09 in Fog , Snow Heavy Snow
10:52 PM 14.0 °F 2.0 °F 10.9 °F 88% 29.77 in 0.2 mi North 9.2 mph 25.3 mph 0.10 in Fog , Snow Heavy Snow
11:52 PM 12.9 °F - 10.9 °F 92% 29.76 in 0.2 mi North - - 0.21 in Fog Light Freezing Fog